Year,Month,Day,Hour,Minute,Value (Times are PST for temperature in C)
2011,07,22,00,00,12.80
2011,07,22,00,01,12.80
2011,07,22,00,02,12.80
2011,07,22,00,03,12.80
2011,07,22,00,04,12.70
2011,07,22,00,05,12.70
2011,07,22,00,06,12.70
2011,07,22,00,07,12.70
2011,07,22,00,08,12.70
2011,07,22,00,09,12.70
2011,07,22,00,10,12.70
2011,07,22,00,11,12.70
2011,07,22,00,12,12.70
2011,07,22,00,13,12.70
2011,07,22,00,14,12.70
2011,07,22,00,15,12.70
2011,07,22,00,16,12.70
2011,07,22,00,17,12.60
2011,07,22,00,18,12.60
2011,07,22,00,19,12.60
2011,07,22,00,20,12.60
2011,07,22,00,21,12.60
2011,07,22,00,22,12.60
2011,07,22,00,23,12.60
2011,07,22,00,24,12.60
2011,07,22,00,25,12.60
2011,07,22,00,26,12.60
2011,07,22,00,27,12.60
2011,07,22,00,28,12.60
2011,07,22,00,29,12.60
2011,07,22,00,30,12.60
2011,07,22,00,31,12.70
2011,07,22,00,32,12.70
2011,07,22,00,33,12.70
2011,07,22,00,34,12.70
2011,07,22,00,35,12.70
2011,07,22,00,36,12.70
2011,07,22,00,37,12.70
2011,07,22,00,38,12.80
2011,07,22,00,39,12.80
2011,07,22,00,40,12.80
2011,07,22,00,41,12.80
2011,07,22,00,42,12.80
2011,07,22,00,43,12.80
2011,07,22,00,44,12.80
2011,07,22,00,45,12.80
2011,07,22,00,46,12.70
2011,07,22,00,47,12.70
2011,07,22,00,48,12.70
2011,07,22,00,49,12.70
2011,07,22,00,50,12.70
2011,07,22,00,51,12.70
2011,07,22,00,52,12.70
2011,07,22,00,53,12.60
2011,07,22,00,54,12.60
2011,07,22,00,55,12.60
2011,07,22,00,56,12.60
2011,07,22,00,57,12.50
2011,07,22,00,58,12.50
2011,07,22,00,59,12.50
2011,07,22,01,00,12.50
2011,07,22,01,01,12.40
2011,07,22,01,02,12.40
2011,07,22,01,03,12.40
2011,07,22,01,04,12.40
2011,07,22,01,05,12.40
2011,07,22,01,06,12.40
2011,07,22,01,07,12.40
2011,07,22,01,08,12.40
2011,07,22,01,09,12.40
2011,07,22,01,10,12.40
2011,07,22,01,11,12.30
2011,07,22,01,12,12.30
2011,07,22,01,13,12.30
2011,07,22,01,14,12.30
2011,07,22,01,15,12.30
2011,07,22,01,16,12.30
2011,07,22,01,17,12.30
2011,07,22,01,18,12.30
2011,07,22,01,19,12.30
2011,07,22,01,20,12.40
2011,07,22,01,21,12.40
2011,07,22,01,22,12.40
2011,07,22,01,23,12.40
2011,07,22,01,24,12.40
2011,07,22,01,25,12.30
2011,07,22,01,26,12.30
2011,07,22,01,27,12.30
2011,07,22,01,28,12.30
2011,07,22,01,29,12.30
2011,07,22,01,30,12.30
2011,07,22,01,31,12.30
2011,07,22,01,32,12.30
2011,07,22,01,33,12.30
2011,07,22,01,34,12.30
2011,07,22,01,35,12.30
2011,07,22,01,36,12.30
2011,07,22,01,37,12.30
2011,07,22,01,38,12.30
2011,07,22,01,39,12.30
2011,07,22,01,40,12.20
2011,07,22,01,41,12.20
2011,07,22,01,42,12.20
2011,07,22,01,43,12.20
2011,07,22,01,44,12.20
2011,07,22,01,45,12.20
2011,07,22,01,46,12.10
2011,07,22,01,47,12.10
2011,07,22,01,48,12.10
2011,07,22,01,49,12.20
2011,07,22,01,50,12.10
2011,07,22,01,51,12.10
2011,07,22,01,52,12.10
2011,07,22,01,53,12.10
2011,07,22,01,54,12.10
2011,07,22,01,55,12.10
2011,07,22,01,56,12.10
2011,07,22,01,57,12.10
2011,07,22,01,58,12.10
2011,07,22,01,59,12.10
2011,07,22,02,00,12.10
2011,07,22,02,01,12.10
2011,07,22,02,02,12.10
2011,07,22,02,03,12.10
2011,07,22,02,04,12.10
2011,07,22,02,05,12.10
2011,07,22,02,06,12.10
2011,07,22,02,07,12.10
2011,07,22,02,08,12.10
2011,07,22,02,09,12.10
2011,07,22,02,10,12.10
2011,07,22,02,11,12.10
2011,07,22,02,12,12.10
2011,07,22,02,13,12.10
2011,07,22,02,14,12.10
2011,07,22,02,15,12.10
2011,07,22,02,16,12.10
2011,07,22,02,17,12.10
2011,07,22,02,18,12.10
2011,07,22,02,19,12.10
2011,07,22,02,20,12.10
2011,07,22,02,21,12.00
2011,07,22,02,22,12.00
2011,07,22,02,23,12.00
2011,07,22,02,24,12.10
2011,07,22,02,25,12.00
2011,07,22,02,26,12.00
2011,07,22,02,27,12.00
2011,07,22,02,28,12.00
2011,07,22,02,29,12.00
2011,07,22,02,30,12.00
2011,07,22,02,31,11.90
2011,07,22,02,32,11.90
2011,07,22,02,33,11.90
2011,07,22,02,34,11.80
2011,07,22,02,35,11.80
2011,07,22,02,36,11.70
2011,07,22,02,37,11.70
2011,07,22,02,38,11.60
2011,07,22,02,39,11.60
2011,07,22,02,40,11.50
2011,07,22,02,41,11.40
2011,07,22,02,42,11.40
2011,07,22,02,43,11.30
2011,07,22,02,44,11.30
2011,07,22,02,45,11.20
2011,07,22,02,46,11.20
2011,07,22,02,47,11.20
2011,07,22,02,48,11.10
2011,07,22,02,49,11.10
2011,07,22,02,50,11.00
2011,07,22,02,51,11.00
2011,07,22,02,52,10.90
2011,07,22,02,53,10.90
2011,07,22,02,54,10.90
2011,07,22,02,55,10.80
2011,07,22,02,56,10.80
2011,07,22,02,57,10.70
2011,07,22,02,58,10.70
2011,07,22,02,59,10.70
2011,07,22,03,00,10.60
2011,07,22,03,01,10.60
2011,07,22,03,02,10.60
2011,07,22,03,03,10.60
2011,07,22,03,04,10.50
2011,07,22,03,05,10.50
2011,07,22,03,06,10.40
2011,07,22,03,07,10.40
2011,07,22,03,08,10.40
2011,07,22,03,09,10.40
2011,07,22,03,10,10.40
2011,07,22,03,11,10.30
2011,07,22,03,12,10.30
2011,07,22,03,13,10.30
2011,07,22,03,14,10.30
2011,07,22,03,15,10.30
2011,07,22,03,16,10.30
2011,07,22,03,17,10.20
2011,07,22,03,18,10.20
2011,07,22,03,19,10.20
2011,07,22,03,20,10.20
2011,07,22,03,21,10.20
2011,07,22,03,22,10.20
2011,07,22,03,23,10.20
2011,07,22,03,24,10.20
2011,07,22,03,25,10.20
2011,07,22,03,26,10.20
2011,07,22,03,27,10.20
2011,07,22,03,28,10.10
2011,07,22,03,29,10.10
2011,07,22,03,30,10.10
2011,07,22,03,31,10.10
2011,07,22,03,32,10.10
2011,07,22,03,33,10.10
2011,07,22,03,34,10.00
2011,07,22,03,35,10.00
2011,07,22,03,36,10.00
2011,07,22,03,37,9.90
2011,07,22,03,38,9.90
2011,07,22,03,39,9.90
2011,07,22,03,40,9.90
2011,07,22,03,41,9.90
2011,07,22,03,42,9.90
2011,07,22,03,43,9.80
2011,07,22,03,44,9.80
2011,07,22,03,45,9.80
2011,07,22,03,46,9.80
2011,07,22,03,47,9.80
2011,07,22,03,48,9.70
2011,07,22,03,49,9.70
2011,07,22,03,50,9.70
2011,07,22,03,51,9.70
2011,07,22,03,52,9.70
2011,07,22,03,53,9.70
2011,07,22,03,54,9.70
2011,07,22,03,55,9.70
2011,07,22,03,56,9.70
2011,07,22,03,57,9.70
2011,07,22,03,58,9.70
2011,07,22,03,59,9.70
2011,07,22,04,00,9.70
2011,07,22,04,01,9.70
2011,07,22,04,02,9.70
2011,07,22,04,03,9.70
2011,07,22,04,04,9.70
2011,07,22,04,05,9.70
2011,07,22,04,06,9.70
2011,07,22,04,07,9.70
2011,07,22,04,08,9.70
2011,07,22,04,09,9.70
2011,07,22,04,10,9.70
2011,07,22,04,11,9.70
2011,07,22,04,12,9.70
2011,07,22,04,13,9.70
2011,07,22,04,14,9.70
2011,07,22,04,15,9.60
2011,07,22,04,16,9.60
2011,07,22,04,17,9.60
2011,07,22,04,18,9.60
2011,07,22,04,19,9.60
2011,07,22,04,20,9.60
2011,07,22,04,21,9.60
2011,07,22,04,22,9.60
2011,07,22,04,23,9.60
2011,07,22,04,24,9.50
2011,07,22,04,25,9.50
2011,07,22,04,26,9.50
2011,07,22,04,27,9.50
2011,07,22,04,28,9.50
2011,07,22,04,29,9.40
2011,07,22,04,30,9.40
2011,07,22,04,31,9.40
2011,07,22,04,32,9.40
2011,07,22,04,33,9.40
2011,07,22,04,34,9.40
2011,07,22,04,35,9.40
2011,07,22,04,36,9.40
2011,07,22,04,37,9.40
2011,07,22,04,38,9.40
2011,07,22,04,39,9.40
2011,07,22,04,40,9.40
2011,07,22,04,41,9.40
2011,07,22,04,42,9.40
2011,07,22,04,43,9.40
2011,07,22,04,44,9.30
2011,07,22,04,45,9.30
2011,07,22,04,46,9.30
2011,07,22,04,47,9.30
2011,07,22,04,48,9.30
2011,07,22,04,49,9.30
2011,07,22,04,50,9.30
2011,07,22,04,51,9.30
2011,07,22,04,52,9.30
2011,07,22,04,53,9.30
2011,07,22,04,54,9.30
2011,07,22,04,55,9.30
2011,07,22,04,56,9.30
2011,07,22,04,57,9.20
2011,07,22,04,58,9.20
2011,07,22,04,59,9.20
2011,07,22,05,00,9.20
2011,07,22,05,01,9.20
2011,07,22,05,02,9.20
2011,07,22,05,03,9.20
2011,07,22,05,04,9.20
2011,07,22,05,05,9.20
2011,07,22,05,06,9.20
2011,07,22,05,07,9.20
2011,07,22,05,08,9.20
2011,07,22,05,09,9.20
2011,07,22,05,10,9.20
2011,07,22,05,11,9.20
2011,07,22,05,12,9.20
2011,07,22,05,13,9.20
2011,07,22,05,14,9.20
2011,07,22,05,15,9.20
2011,07,22,05,16,9.10
2011,07,22,05,17,9.10
2011,07,22,05,18,9.10
2011,07,22,05,19,9.10
2011,07,22,05,20,9.10
2011,07,22,05,21,9.10
2011,07,22,05,22,9.10
2011,07,22,05,23,9.10
2011,07,22,05,24,9.00
2011,07,22,05,25,9.00
2011,07,22,05,26,9.00
2011,07,22,05,27,9.00
2011,07,22,05,28,9.00
2011,07,22,05,29,9.00
2011,07,22,05,30,8.90
2011,07,22,05,31,8.90
2011,07,22,05,32,8.90
2011,07,22,05,33,8.90
2011,07,22,05,34,8.90
2011,07,22,05,35,8.90
2011,07,22,05,36,8.90
2011,07,22,05,37,8.90
2011,07,22,05,38,8.80
2011,07,22,05,39,8.90
2011,07,22,05,40,8.90
2011,07,22,05,41,8.90
2011,07,22,05,42,8.90
2011,07,22,05,43,8.90
2011,07,22,05,44,8.90
2011,07,22,05,45,8.90
2011,07,22,05,46,8.90
2011,07,22,05,47,8.90
2011,07,22,05,48,8.90
2011,07,22,05,49,8.90
2011,07,22,05,50,8.90
2011,07,22,05,51,8.90
2011,07,22,05,52,8.90
2011,07,22,05,53,8.90
2011,07,22,05,54,8.90
2011,07,22,05,55,8.90
2011,07,22,05,56,8.90
2011,07,22,05,57,8.90
2011,07,22,05,58,8.90
2011,07,22,05,59,8.90
2011,07,22,06,00,8.80
2011,07,22,06,01,8.80
2011,07,22,06,02,8.80
2011,07,22,06,03,8.80
2011,07,22,06,04,8.80
2011,07,22,06,05,8.90
2011,07,22,06,06,8.90
2011,07,22,06,07,8.90
2011,07,22,06,08,9.00
2011,07,22,06,09,9.00
2011,07,22,06,10,9.10
2011,07,22,06,11,9.10
2011,07,22,06,12,9.20
2011,07,22,06,13,9.20
2011,07,22,06,14,9.20
2011,07,22,06,15,9.30
2011,07,22,06,16,9.30
2011,07,22,06,17,9.30
2011,07,22,06,18,9.40
2011,07,22,06,19,9.40
2011,07,22,06,20,9.40
2011,07,22,06,21,9.50
2011,07,22,06,22,9.50
2011,07,22,06,23,9.60
2011,07,22,06,24,9.60
2011,07,22,06,25,9.70
2011,07,22,06,26,9.70
2011,07,22,06,27,9.80
2011,07,22,06,28,9.80
2011,07,22,06,29,9.90
2011,07,22,06,30,9.90
2011,07,22,06,31,10.00
2011,07,22,06,32,10.00
2011,07,22,06,33,10.10
2011,07,22,06,34,10.20
2011,07,22,06,35,10.20
2011,07,22,06,36,10.30
2011,07,22,06,37,10.30
2011,07,22,06,38,10.40
2011,07,22,06,39,10.40
2011,07,22,06,40,10.50
2011,07,22,06,41,10.60
2011,07,22,06,42,10.60
2011,07,22,06,43,10.70
2011,07,22,06,44,10.80
2011,07,22,06,45,10.90
2011,07,22,06,46,11.00
2011,07,22,06,47,11.00
2011,07,22,06,48,11.10
2011,07,22,06,49,11.20
2011,07,22,06,50,11.20
2011,07,22,06,51,11.30
2011,07,22,06,52,11.30
2011,07,22,06,53,11.40
2011,07,22,06,54,11.50
2011,07,22,06,55,11.50
2011,07,22,06,56,11.60
2011,07,22,06,57,11.70
2011,07,22,06,58,11.80
2011,07,22,06,59,11.80
2011,07,22,07,00,11.90
2011,07,22,07,01,12.00
2011,07,22,07,02,12.10
2011,07,22,07,03,12.10
2011,07,22,07,04,12.20
2011,07,22,07,05,12.20
2011,07,22,07,06,12.30
2011,07,22,07,07,12.30
2011,07,22,07,08,12.30
2011,07,22,07,09,12.30
2011,07,22,07,10,12.40
2011,07,22,07,11,12.40
2011,07,22,07,12,12.40
2011,07,22,07,13,12.40
2011,07,22,07,14,12.40
2011,07,22,07,15,12.40
2011,07,22,07,16,12.40
2011,07,22,07,17,12.40
2011,07,22,07,18,12.40
2011,07,22,07,19,12.40
2011,07,22,07,20,12.40
2011,07,22,07,21,12.40
2011,07,22,07,22,12.50
2011,07,22,07,23,12.50
2011,07,22,07,24,12.60
2011,07,22,07,25,12.60
2011,07,22,07,26,12.60
2011,07,22,07,27,12.70
2011,07,22,07,28,12.80
2011,07,22,07,29,12.80
2011,07,22,07,30,12.80
2011,07,22,07,31,12.90
2011,07,22,07,32,12.90
2011,07,22,07,33,12.90
2011,07,22,07,34,12.90
2011,07,22,07,35,13.00
2011,07,22,07,36,13.00
2011,07,22,07,37,13.10
2011,07,22,07,38,13.10
2011,07,22,07,39,13.10
2011,07,22,07,40,13.20
2011,07,22,07,41,13.20
2011,07,22,07,42,13.30
2011,07,22,07,43,13.30
2011,07,22,07,44,13.40
2011,07,22,07,45,13.50
2011,07,22,07,46,13.60
2011,07,22,07,47,13.70
2011,07,22,07,48,13.80
2011,07,22,07,49,13.90
2011,07,22,07,50,13.90
2011,07,22,07,51,14.00
2011,07,22,07,52,14.10
2011,07,22,07,53,14.10
2011,07,22,07,54,14.20
2011,07,22,07,55,14.20
2011,07,22,07,56,14.30
2011,07,22,07,57,14.40
2011,07,22,07,58,14.50
2011,07,22,07,59,14.60
2011,07,22,08,00,14.60
2011,07,22,08,01,14.80
2011,07,22,08,02,14.90
2011,07,22,08,03,15.00
2011,07,22,08,04,15.10
2011,07,22,08,05,15.20
2011,07,22,08,06,15.30
2011,07,22,08,07,15.50
2011,07,22,08,08,15.60
2011,07,22,08,09,15.60
2011,07,22,08,10,15.60
2011,07,22,08,11,15.70
2011,07,22,08,12,15.70
2011,07,22,08,13,15.80
2011,07,22,08,14,15.90
2011,07,22,08,15,15.90
2011,07,22,08,16,15.90
2011,07,22,08,17,15.90
2011,07,22,08,18,15.90
2011,07,22,08,19,16.00
2011,07,22,08,20,16.00
2011,07,22,08,21,16.00
2011,07,22,08,22,16.00
2011,07,22,08,23,16.10
2011,07,22,08,24,16.10
2011,07,22,08,25,16.20
2011,07,22,08,26,16.20
2011,07,22,08,27,16.20
2011,07,22,08,28,16.30
2011,07,22,08,29,16.30
2011,07,22,08,30,16.20
2011,07,22,08,31,16.10
2011,07,22,08,32,16.10
2011,07,22,08,33,16.10
2011,07,22,08,34,16.10
2011,07,22,08,35,16.00
2011,07,22,08,36,15.90
2011,07,22,08,37,15.80
2011,07,22,08,38,15.80
2011,07,22,08,39,15.80
2011,07,22,08,40,15.80
2011,07,22,08,41,15.80
2011,07,22,08,42,15.90
2011,07,22,08,43,15.90
2011,07,22,08,44,15.90
2011,07,22,08,45,15.90
2011,07,22,08,46,16.00
2011,07,22,08,47,16.00
2011,07,22,08,48,16.00
2011,07,22,08,49,16.00
2011,07,22,08,50,16.10
2011,07,22,08,51,16.10
2011,07,22,08,52,16.20
2011,07,22,08,53,16.20
2011,07,22,08,54,16.20
2011,07,22,08,55,16.30
2011,07,22,08,56,16.30
2011,07,22,08,57,16.30
2011,07,22,08,58,16.40
2011,07,22,08,59,16.50
2011,07,22,09,00,16.60
2011,07,22,09,01,16.60
2011,07,22,09,02,16.70
2011,07,22,09,03,16.70
2011,07,22,09,04,16.70
2011,07,22,09,05,16.60
2011,07,22,09,06,16.70
2011,07,22,09,07,16.70
2011,07,22,09,08,16.70
2011,07,22,09,09,16.80
2011,07,22,09,10,16.80
2011,07,22,09,11,16.90
2011,07,22,09,12,16.90
2011,07,22,09,13,17.00
2011,07,22,09,14,17.00
2011,07,22,09,15,17.00
2011,07,22,09,16,17.10
2011,07,22,09,17,17.10
2011,07,22,09,18,17.10
2011,07,22,09,19,17.10
2011,07,22,09,20,17.20
2011,07,22,09,21,17.20
2011,07,22,09,22,17.20
2011,07,22,09,23,17.30
2011,07,22,09,24,17.30
2011,07,22,09,25,17.30
2011,07,22,09,26,17.30
2011,07,22,09,27,17.30
2011,07,22,09,28,17.40
2011,07,22,09,29,17.40
2011,07,22,09,30,17.40
2011,07,22,09,31,17.50
2011,07,22,09,32,17.50
2011,07,22,09,33,17.50
2011,07,22,09,34,17.60
2011,07,22,09,35,17.70
2011,07,22,09,36,17.70
2011,07,22,09,37,17.80
2011,07,22,09,38,17.80
2011,07,22,09,39,17.90
2011,07,22,09,40,17.90
2011,07,22,09,41,17.90
2011,07,22,09,42,17.90
2011,07,22,09,43,18.00
2011,07,22,09,44,18.00
2011,07,22,09,45,18.00
2011,07,22,09,46,18.00
2011,07,22,09,47,18.00
2011,07,22,09,48,18.00
2011,07,22,09,49,18.00
2011,07,22,09,50,18.00
2011,07,22,09,51,18.10
2011,07,22,09,52,18.10
2011,07,22,09,53,18.10
2011,07,22,09,54,18.00
2011,07,22,09,55,17.90
2011,07,22,09,56,17.90
2011,07,22,09,57,17.90
2011,07,22,09,58,17.90
2011,07,22,09,59,17.90
2011,07,22,10,00,17.90
2011,07,22,10,01,17.90
2011,07,22,10,02,17.90
2011,07,22,10,03,17.90
2011,07,22,10,04,17.80
2011,07,22,10,05,17.80
2011,07,22,10,06,17.80
2011,07,22,10,07,17.80
2011,07,22,10,08,17.80
2011,07,22,10,09,17.80
2011,07,22,10,10,17.90
2011,07,22,10,11,17.90
2011,07,22,10,12,18.00
2011,07,22,10,13,18.10
2011,07,22,10,14,18.20
2011,07,22,10,15,18.20
2011,07,22,10,16,18.20
2011,07,22,10,17,18.10
2011,07,22,10,18,18.10
2011,07,22,10,19,18.20
2011,07,22,10,20,18.20
2011,07,22,10,21,18.20
2011,07,22,10,22,18.20
2011,07,22,10,23,18.30
2011,07,22,10,24,18.20
2011,07,22,10,25,18.20
2011,07,22,10,26,18.10
2011,07,22,10,27,18.10
2011,07,22,10,28,18.00
2011,07,22,10,29,17.90
2011,07,22,10,30,17.70
2011,07,22,10,31,17.60
2011,07,22,10,32,17.60
2011,07,22,10,33,17.60
2011,07,22,10,34,17.60
2011,07,22,10,35,17.60
2011,07,22,10,36,17.70
2011,07,22,10,37,17.80
2011,07,22,10,38,17.90
2011,07,22,10,39,18.00
2011,07,22,10,40,18.00
2011,07,22,10,41,18.10
2011,07,22,10,42,18.00
2011,07,22,10,43,17.90
2011,07,22,10,44,17.90
2011,07,22,10,45,18.00
2011,07,22,10,46,18.00
2011,07,22,10,47,18.00
2011,07,22,10,48,18.00
2011,07,22,10,49,18.10
2011,07,22,10,50,18.20
2011,07,22,10,51,18.30
2011,07,22,10,52,18.30
2011,07,22,10,53,18.30
2011,07,22,10,54,18.30
2011,07,22,10,55,18.30
2011,07,22,10,56,18.40
2011,07,22,10,57,18.50
2011,07,22,10,58,18.60
2011,07,22,10,59,18.60
2011,07,22,11,00,18.50
2011,07,22,11,01,18.40
2011,07,22,11,02,18.30
2011,07,22,11,03,18.30
2011,07,22,11,04,18.20
2011,07,22,11,05,18.20
2011,07,22,11,06,18.20
2011,07,22,11,07,18.10
2011,07,22,11,08,18.00
2011,07,22,11,09,17.90
2011,07,22,11,10,17.80
2011,07,22,11,11,17.80
2011,07,22,11,12,17.80
2011,07,22,11,13,17.80
2011,07,22,11,14,17.90
2011,07,22,11,15,18.00
2011,07,22,11,16,18.00
2011,07,22,11,17,18.00
2011,07,22,11,18,17.90
2011,07,22,11,19,17.80
2011,07,22,11,20,17.80
2011,07,22,11,21,17.90
2011,07,22,11,22,18.00
2011,07,22,11,23,18.10
2011,07,22,11,24,18.10
2011,07,22,11,25,18.10
2011,07,22,11,26,18.20
2011,07,22,11,27,18.20
2011,07,22,11,28,18.30
2011,07,22,11,29,18.30
2011,07,22,11,30,18.20
2011,07,22,11,31,18.10
2011,07,22,11,32,18.10
2011,07,22,11,33,18.10
2011,07,22,11,34,18.10
2011,07,22,11,35,18.10
2011,07,22,11,36,18.20
2011,07,22,11,37,18.30
2011,07,22,11,38,18.40
2011,07,22,11,39,18.30
2011,07,22,11,40,18.30
2011,07,22,11,41,18.30
2011,07,22,11,42,18.30
2011,07,22,11,43,18.20
2011,07,22,11,44,18.20
2011,07,22,11,45,18.20
2011,07,22,11,46,18.20
2011,07,22,11,47,18.30
2011,07,22,11,48,18.40
2011,07,22,11,49,18.40
2011,07,22,11,50,18.40
2011,07,22,11,51,18.40
2011,07,22,11,52,18.40
2011,07,22,11,53,18.30
2011,07,22,11,54,18.20
2011,07,22,11,55,18.20
2011,07,22,11,56,18.00
2011,07,22,11,57,17.80
2011,07,22,11,58,17.70
2011,07,22,11,59,17.60
2011,07,22,12,00,17.50
2011,07,22,12,01,17.40
2011,07,22,12,02,17.30
2011,07,22,12,03,17.20
2011,07,22,12,04,17.20
2011,07,22,12,05,17.20
2011,07,22,12,06,17.20
2011,07,22,12,07,17.20
2011,07,22,12,08,17.20
2011,07,22,12,09,17.20
2011,07,22,12,10,17.20
2011,07,22,12,11,17.20
2011,07,22,12,12,17.10
2011,07,22,12,13,17.10
2011,07,22,12,14,17.00
2011,07,22,12,15,17.00
2011,07,22,12,16,17.00
2011,07,22,12,17,17.00
2011,07,22,12,18,17.00
2011,07,22,12,19,16.90
2011,07,22,12,20,16.90
2011,07,22,12,21,16.90
2011,07,22,12,22,16.90
2011,07,22,12,23,16.90
2011,07,22,12,24,16.90
2011,07,22,12,25,16.90
2011,07,22,12,26,17.00
2011,07,22,12,27,17.00
2011,07,22,12,28,17.10
2011,07,22,12,29,17.20
2011,07,22,12,30,17.20
2011,07,22,12,31,17.20
2011,07,22,12,32,17.20
2011,07,22,12,33,17.20
2011,07,22,12,34,17.20
2011,07,22,12,35,17.30
2011,07,22,12,36,17.30
2011,07,22,12,37,17.40
2011,07,22,12,38,17.50
2011,07,22,12,39,17.60
2011,07,22,12,40,17.70
2011,07,22,12,41,17.80
2011,07,22,12,42,17.90
2011,07,22,12,43,18.00
2011,07,22,12,44,18.10
2011,07,22,12,45,18.10
2011,07,22,12,46,18.10
2011,07,22,12,47,18.00
2011,07,22,12,48,17.90
2011,07,22,12,49,17.90
2011,07,22,12,50,17.90
2011,07,22,12,51,17.90
2011,07,22,12,52,17.90
2011,07,22,12,53,17.90
2011,07,22,12,54,17.90
2011,07,22,12,55,18.00
2011,07,22,12,56,18.00
2011,07,22,12,57,18.00
2011,07,22,12,58,18.00
2011,07,22,12,59,18.00
2011,07,22,13,00,17.90
2011,07,22,13,01,17.80
2011,07,22,13,02,17.80
2011,07,22,13,03,17.80
2011,07,22,13,04,17.80
2011,07,22,13,05,17.90
2011,07,22,13,06,18.00
2011,07,22,13,07,18.10
2011,07,22,13,08,18.20
2011,07,22,13,09,18.20
2011,07,22,13,10,18.20
2011,07,22,13,11,18.10
2011,07,22,13,12,18.10
2011,07,22,13,13,18.10
2011,07,22,13,14,18.10
2011,07,22,13,15,18.10
2011,07,22,13,16,18.10
2011,07,22,13,17,18.20
2011,07,22,13,18,18.20
2011,07,22,13,19,18.30
2011,07,22,13,20,18.40
2011,07,22,13,21,18.40
2011,07,22,13,22,18.50
2011,07,22,13,23,18.50
2011,07,22,13,24,18.50
2011,07,22,13,25,18.50
2011,07,22,13,26,18.50
2011,07,22,13,27,18.50
2011,07,22,13,28,18.50
2011,07,22,13,29,18.50
2011,07,22,13,30,18.50
2011,07,22,13,31,18.50
2011,07,22,13,32,18.50
2011,07,22,13,33,18.40
2011,07,22,13,34,18.40
2011,07,22,13,35,18.30
2011,07,22,13,36,18.20
2011,07,22,13,37,18.20
2011,07,22,13,38,18.20
2011,07,22,13,39,18.20
2011,07,22,13,40,18.20
2011,07,22,13,41,18.20
2011,07,22,13,42,18.20
2011,07,22,13,43,18.20
2011,07,22,13,44,18.10
2011,07,22,13,45,18.10
2011,07,22,13,46,18.10
2011,07,22,13,47,18.10
2011,07,22,13,48,18.20
2011,07,22,13,49,18.20
2011,07,22,13,50,18.10
2011,07,22,13,51,18.10
2011,07,22,13,52,18.10
2011,07,22,13,53,18.10
2011,07,22,13,54,18.10
2011,07,22,13,55,18.20
2011,07,22,13,56,18.20
2011,07,22,13,57,18.20
2011,07,22,13,58,18.20
2011,07,22,13,59,18.20
2011,07,22,14,00,18.20
2011,07,22,14,01,18.20
2011,07,22,14,02,18.10
2011,07,22,14,03,18.10
2011,07,22,14,04,18.10
2011,07,22,14,05,18.10
2011,07,22,14,06,18.10
2011,07,22,14,07,18.20
2011,07,22,14,08,18.20
2011,07,22,14,09,18.20
2011,07,22,14,10,18.20
2011,07,22,14,11,18.20
2011,07,22,14,12,18.20
2011,07,22,14,13,18.30
2011,07,22,14,14,18.30
2011,07,22,14,15,18.30
2011,07,22,14,16,18.40
2011,07,22,14,17,18.40
2011,07,22,14,18,18.40
2011,07,22,14,19,18.40
2011,07,22,14,20,18.40
2011,07,22,14,21,18.40
2011,07,22,14,22,18.50
2011,07,22,14,23,18.60
2011,07,22,14,24,18.70
2011,07,22,14,25,18.70
2011,07,22,14,26,18.70
2011,07,22,14,27,18.80
2011,07,22,14,28,18.80
2011,07,22,14,29,18.80
2011,07,22,14,30,18.80
2011,07,22,14,31,18.80
2011,07,22,14,32,18.70
2011,07,22,14,33,18.70
2011,07,22,14,34,18.70
2011,07,22,14,35,18.70
2011,07,22,14,36,18.70
2011,07,22,14,37,18.70
2011,07,22,14,38,18.70
2011,07,22,14,39,18.70
2011,07,22,14,40,18.70
2011,07,22,14,41,18.80
2011,07,22,14,42,18.80
2011,07,22,14,43,18.80
2011,07,22,14,44,18.80
2011,07,22,14,45,18.80
2011,07,22,14,46,18.80
2011,07,22,14,47,18.80
2011,07,22,14,48,18.80
2011,07,22,14,49,18.70
2011,07,22,14,50,18.70
2011,07,22,14,51,18.70
2011,07,22,14,52,18.70
2011,07,22,14,53,18.70
2011,07,22,14,54,18.80
2011,07,22,14,55,18.80
2011,07,22,14,56,18.80
2011,07,22,14,57,18.80
2011,07,22,14,58,18.80
2011,07,22,14,59,18.80
2011,07,22,15,00,18.70
2011,07,22,15,01,18.70
2011,07,22,15,02,18.70
2011,07,22,15,03,18.70
2011,07,22,15,04,18.70
2011,07,22,15,05,18.70
2011,07,22,15,06,18.70
2011,07,22,15,07,18.70
2011,07,22,15,08,18.70
2011,07,22,15,09,18.70
2011,07,22,15,10,18.70
2011,07,22,15,11,18.70
2011,07,22,15,12,18.60
2011,07,22,15,13,18.60
2011,07,22,15,14,18.60
2011,07,22,15,15,18.60
2011,07,22,15,16,18.60
2011,07,22,15,17,18.60
2011,07,22,15,18,18.60
2011,07,22,15,19,18.60
2011,07,22,15,20,18.50
2011,07,22,15,21,18.50
2011,07,22,15,22,18.40
2011,07,22,15,23,18.40
2011,07,22,15,24,18.30
2011,07,22,15,25,18.30
2011,07,22,15,26,18.30
2011,07,22,15,27,18.30
2011,07,22,15,28,18.30
2011,07,22,15,29,18.40
2011,07,22,15,30,18.40
2011,07,22,15,31,18.40
2011,07,22,15,32,18.40
2011,07,22,15,33,18.40
2011,07,22,15,34,18.40
2011,07,22,15,35,18.40
2011,07,22,15,36,18.40
2011,07,22,15,37,18.40
2011,07,22,15,38,18.40
2011,07,22,15,39,18.40
2011,07,22,15,40,18.40
2011,07,22,15,41,18.40
2011,07,22,15,42,18.50
2011,07,22,15,43,18.50
2011,07,22,15,44,18.60
2011,07,22,15,45,18.70
2011,07,22,15,46,18.70
2011,07,22,15,47,18.70
2011,07,22,15,48,18.80
2011,07,22,15,49,18.80
2011,07,22,15,50,18.90
2011,07,22,15,51,19.00
2011,07,22,15,52,19.10
2011,07,22,15,53,19.20
2011,07,22,15,54,19.30
2011,07,22,15,55,19.40
2011,07,22,15,56,19.40
2011,07,22,15,57,19.40
2011,07,22,15,58,19.40
2011,07,22,15,59,19.40
2011,07,22,16,00,19.40
2011,07,22,16,01,19.40
2011,07,22,16,02,19.30
2011,07,22,16,03,19.30
2011,07,22,16,04,19.30
2011,07,22,16,05,19.30
2011,07,22,16,06,19.20
2011,07,22,16,07,19.20
2011,07,22,16,08,19.20
2011,07,22,16,09,19.10
2011,07,22,16,10,19.10
2011,07,22,16,11,19.10
2011,07,22,16,12,19.10
2011,07,22,16,13,19.10
2011,07,22,16,14,19.10
2011,07,22,16,15,19.10
2011,07,22,16,16,19.10
2011,07,22,16,17,19.20
2011,07,22,16,18,19.20
2011,07,22,16,19,19.30
2011,07,22,16,20,19.30
2011,07,22,16,21,19.40
2011,07,22,16,22,19.40
2011,07,22,16,23,19.40
2011,07,22,16,24,19.40
2011,07,22,16,25,19.50
2011,07,22,16,26,19.60
2011,07,22,16,27,19.60
2011,07,22,16,28,19.70
2011,07,22,16,29,19.70
2011,07,22,16,30,19.70
2011,07,22,16,31,19.70
2011,07,22,16,32,19.70
2011,07,22,16,33,19.70
2011,07,22,16,34,19.70
2011,07,22,16,35,19.70
2011,07,22,16,36,19.80
2011,07,22,16,37,19.80
2011,07,22,16,38,19.80
2011,07,22,16,39,19.80
2011,07,22,16,40,19.90
2011,07,22,16,41,20.00
2011,07,22,16,42,20.10
2011,07,22,16,43,20.30
2011,07,22,16,44,20.40
2011,07,22,16,45,20.40
2011,07,22,16,46,20.50
2011,07,22,16,47,20.70
2011,07,22,16,48,20.70
2011,07,22,16,49,20.70
2011,07,22,16,50,20.70
2011,07,22,16,51,20.60
2011,07,22,16,52,20.60
2011,07,22,16,53,20.40
2011,07,22,16,54,20.40
2011,07,22,16,55,20.40
2011,07,22,16,56,20.40
2011,07,22,16,57,20.40
2011,07,22,16,58,20.40
2011,07,22,16,59,20.40
2011,07,22,17,00,20.50
2011,07,22,17,01,20.60
2011,07,22,17,02,20.50
2011,07,22,17,03,20.50
2011,07,22,17,04,20.40
2011,07,22,17,05,20.40
2011,07,22,17,06,20.30
2011,07,22,17,07,20.30
2011,07,22,17,08,20.30
2011,07,22,17,09,20.30
2011,07,22,17,10,20.30
2011,07,22,17,11,20.40
2011,07,22,17,12,20.40
2011,07,22,17,13,20.50
2011,07,22,17,14,20.50
2011,07,22,17,15,20.50
2011,07,22,17,16,20.40
2011,07,22,17,17,20.30
2011,07,22,17,18,20.20
2011,07,22,17,19,20.10
2011,07,22,17,20,20.10
2011,07,22,17,21,20.00
2011,07,22,17,22,20.00
2011,07,22,17,23,20.10
2011,07,22,17,24,20.20
2011,07,22,17,25,20.30
2011,07,22,17,26,20.30
2011,07,22,17,27,20.40